RH
17 21 24 23 26 27 26 27 27 27 28 28 30 30 29 29 28 29 31 31 29 29 34 38 39 38 38 38 37 35 37 39 40 42 43 46 47 48 52 53 54 55 56 58 58 54 51 45 41 41 40 39 38 36 32 28 25 22 20 18 15 12 11 11 12 14 17 21 22 23 24 23 24 24 25 29 32 31 30 28 27 26 26 25 24 23
17 20 23 23 25 26 27 29 29 28 28 28 27 27 28 28 27 28 29 31 30 29 35 40 38 36 35 36 37 36 39 39 40 42 43 46 48 50 53 55 57 58 58 61 59 55 54 50 43 41 40 39 39 38 33 28 25 23 20 18 15 12 11 11 13 15 18 22 23 23 24 23 23 23 25 28 31 31 30 28 27 26 25 23 22 22
17 19 21 22 24 24 26 30 29 28 28 27 27 27 26 26 28 30 30 32 32 30 35 40 37 34 34 36 37 37 38 38 38 40 43 46 49 52 54 57 60 61 62 62 59 57 58 54 47 42 41 40 40 39 35 29 25 24 21 19 16 12 11 11 14 16 19 23 24 24 24 22 21 23 26 30 32 33 30 27 25 24 24 23 23 22
18 20 20 21 24 24 24 27 28 28 26 25 27 26 25 27 26 28 31 33 34 32 34 37 36 35 37 39 39 37 36 38 38 40 43 46 49 53 57 60 63 64 65 64 61 60 62 59 52 44 41 41 41 40 36 29 24 24 23 20 16 12 10 12 14 16 19 23 24 24 24 22 21 21 25 30 33 33 29 26 24 23 22 22 22 23
20 19 19 23 26 26 23 24 27 26 25 28 29 25 25 27 25 28 32 33 34 33 33 35 35 37 39 40 40 38 37 38 39 41 44 46 50 55 59 63 67 68 67 65 63 63 64 63 57 47 42 42 41 40 38 31 25 24 24 20 17 12 11 12 13 15 18 21 23 23 23 21 20 20 21 24 26 26 24 23 23 22 22 22 22 22
20 18 19 23 26 27 23 21 23 24 26 30 31 26 24 26 27 30 32 32 34 33 31 34 36 37 38 39 40 40 39 40 41 43 45 47 52 57 61 65 68 70 69 65 65 66 65 65 62 51 44 43 42 40 40 35 27 25 25 22 17 12 11 12 13 15 17 19 21 22 23 21 20 20 19 20 20 19 20 21 22 23 23 23 23 22
19 19 21 24 25 24 21 21 22 24 29 28 27 28 27 28 28 29 30 29 31 31 31 37 38 37 35 35 39 41 40 43 44 44 46 47 52 56 60 65 68 70 69 67 67 68 65 66 65 56 46 43 43 41 41 37 29 25 26 23 18 12 11 12 12 14 16 17 20 22 22 21 20 20 19 19 19 19 21 22 23 23 23 23 23 23
20 21 23 24 23 21 19 20 21 24 28 24 24 29 28 26 26 27 30 27 29 31 34 40 40 39 39 35 39 42 39 44 47 47 48 47 51 56 60 64 67 68 69 68 69 67 65 66 67 60 48 44 44 42 43 38 28 26 27 24 18 12 11 11 11 13 15 16 19 21 22 21 21 21 21 21 21 22 24 24 24 23 23 23 23 23
19 21 22 22 20 20 18 19 21 23 24 23 26 28 25 26 28 30 31 29 32 33 34 42 40 40 42 36 39 42 38 44 48 49 50 48 51 56 58 62 64 65 67 68 69 67 66 67 68 63 51 45 45 44 43 38 29 27 27 25 18 12 11 11 11 13 15 16 18 20 22 21 22 23 23 23 24 24 25 25 24 23 24 24 24 24
18 19 20 21 20 21 20 21 24 22 22 23 26 28 27 29 30 31 31 31 36 34 35 42 39 40 43 36 37 40 38 44 49 50 52 48 50 54 56 58 61 63 65 66 68 67 67 68 69 66 54 46 46 45 45 40 32 28 28 26 20 13 11 10 11 13 14 15 17 20 21 20 21 22 24 24 25 25 26 26 25 24 24 24 25 25
20 20 20 21 19 20 22 23 24 22 22 23 26 29 29 29 31 34 34 33 37 38 40 42 38 41 44 38 37 39 39 46 48 50 53 48 48 51 53 56 60 61 63 66 67 67 68 69 70 68 57 48 47 47 46 42 34 30 29 27 20 14 11 10 11 12 14 15 16 19 20 19 20 21 22 23 24 25 26 26 25 25 25 26 26 26
20 21 20 20 19 20 22 21 21 23 24 23 27 28 24 25 29 32 36 37 37 36 38 41 38 40 44 39 37 39 44 50 49 49 52 50 48 49 51 54 58 60 62 65 67 68 71 71 71 70 59 48 47 47 47 45 37 32 31 28 21 15 12 10 11 12 13 14 16 18 19 19 19 20 21 22 23 25 25 25 25 25 26 27 28 28
21 21 21 21 19 20 22 23 23 26 26 24 28 28 26 32 32 30 40 43 38 33 33 36 37 37 40 37 35 38 42 47 47 47 48 48 48 48 49 52 57 60 61 63 66 69 73 74 73 72 60 49 49 48 47 46 41 35 33 29 22 16 13 11 11 12 13 14 15 18 18 17 19 20 21 22 23 25 25 25 25 26 27 29 30 30
22 23 23 21 19 18 22 24 23 25 26 24 29 31 32 40 39 39 47 43 34 34 33 34 38 38 36 34 36 39 38 39 42 43 45 47 49 49 48 52 57 61 62 63 65 69 73 75 76 72 59 50 50 49 48 48 44 39 35 29 22 17 13 12 12 12 12 13 15 17 17 17 18 19 20 22 23 24 24 24 25 26 27 29 31 32
22 21 19 20 19 19 21 22 22 24 26 26 30 32 31 36 36 37 44 39 34 38 36 33 36 36 34 33 36 37 35 36 39 41 45 48 50 50 49 53 58 61 63 63 65 70 74 77 78 70 58 51 51 50 49 49 47 43 37 30 22 17 14 12 12 12 12 13 15 16 17 17 17 18 20 21 23 22 22 22 24 25 26 28 30 31
22 19 20 22 20 20 22 22 23 26 26 27 31 32 30 34 34 35 41 39 38 45 45 38 34 32 33 33 36 38 37 37 39 42 46 48 51 52 51 54 59 62 65 65 65 71 75 79 78 68 57 53 52 51 50 50 50 45 38 30 23 18 15 13 13 12 12 13 14 16 16 17 17 18 20 21 21 20 19 21 22 24 25 27 28 29
20 20 23 24 20 21 22 22 24 24 24 28 31 30 29 34 37 37 39 40 43 48 44 36 34 32 32 32 36 42 41 39 42 43 44 47 51 54 53 55 60 63 66 65 65 71 76 80 76 65 57 55 53 52 51 51 50 45 38 31 24 19 15 14 13 12 13 13 14 16 16 17 18 19 21 21 20 18 19 21 22 24 25 26 27 28
19 21 24 23 18 20 22 21 23 24 24 27 29 28 29 33 37 39 40 44 51 53 43 35 38 37 34 33 35 39 39 39 42 44 44 46 51 55 56 57 62 65 65 64 66 71 77 80 73 63 59 56 54 53 52 52 51 44 38 31 24 20 17 15 14 13 13 14 15 16 16 17 19 20 22 21 19 18 19 21 24 25 26 27 28 28
20 21 23 22 19 20 22 21 23 24 25 26 26 27 29 32 36 38 40 42 46 53 48 39 40 40 38 38 35 33 36 37 40 44 46 48 51 54 57 59 64 66 64 62 65 71 78 78 70 63 61 57 55 54 53 54 51 44 37 31 26 22 18 17 15 13 14 14 15 17 17 18 20 21 22 21 19 18 19 22 25 27 28 28 28 29
20 19 20 22 20 20 20 21 24 25 25 26 27 29 30 32 35 36 40 42 43 52 54 45 42 38 37 42 38 32 35 37 39 43 46 47 49 53 57 60 66 68 63 60 64 72 77 75 69 64 62 59 57 55 54 54 50 42 36 31 26 23 20 18 16 14 15 15 16 18 18 19 21 22 22 21 19 19 20 23 26 28 30 31 31 31
21 19 19 22 22 20 20 21 24 26 27 27 27 29 29 30 34 35 38 43 45 53 60 57 50 36 31 38 37 32 34 38 39 42 43 45 46 50 56 60 66 71 65 60 64 72 76 73 69 66 64 61 59 56 55 54 49 41 35 30 26 24 21 19 17 16 16 16 17 19 19 20 21 22 22 20 19 19 21 23 27 30 31 33 33 34
20 20 21 22 20 19 21 23 24 26 29 29 25 26 28 29 33 34 38 44 45 50 56 58 52 36 27 34 35 32 35 38 38 40 42 42 43 48 54 58 65 72 69 62 65 72 74 72 69 67 65 63 60 57 56 54 48 41 36 30 26 25 23 20 18 17 17 18 18 20 20 20 21 21 21 20 19 19 21 24 27 30 33 34 35 36
20 21 22 21 18 18 21 22 21 23 26 26 24 25 29 32 33 34 38 42 43 47 50 55 54 37 26 33 36 33 35 36 36 38 39 40 42 46 53 57 63 72 71 65 66 73 73 69 69 68 67 65 61 57 56 53 48 43 37 30 26 26 25 21 20 18 17 18 19 20 20 20 21 21 20 19 19 20 22 24 26 30 33 35 37 38
20 20 20 21 19 19 22 23 23 23 23 22 23 25 28 31 33 35 40 41 41 45 48 56 57 36 24 33 36 31 33 35 35 37 37 38 41 45 51 56 62 69 71 67 67 74 74 68 68 69 68 67 63 58 55 54 51 46 38 30 26 27 26 23 21 19 18 18 19 20 19 19 20 19 19 19 19 20 22 24 27 29 32 36 37 39
18 19 19 20 19 19 22 25 23 22 22 22 24 27 28 30 33 35 38 39 41 42 44 53 53 32 23 32 33 29 33 35 35 36 35 37 40 44 48 54 61 67 69 67 68 75 76 68 66 69 70 68 64 58 55 55 54 48 39 30 26 27 27 25 22 20 19 18 19 19 18 18 18 18 18 19 19 21 22 24 27 29 32 35 38 39
18 20 19 18 19 19 19 19 18 18 21 22 24 27 27 30 31 31 35 39 40 40 41 46 41 24 19 26 27 28 32 32 31 32 32 35 39 43 46 51 59 65 67 66 68 76 77 69 66 70 71 69 64 58 55 55 55 49 39 30 27 27 27 26 23 21 19 18 18 18 17 16 17 17 18 18 19 21 22 24 27 29 32 35 37 39
22 22 20 19 21 20 16 15 16 17 18 19 21 25 27 30 31 32 37 40 39 41 39 35 31 25 22 22 23 25 27 29 29 29 30 33 37 42 45 49 59 66 67 66 68 75 78 71 67 70 71 70 66 59 54 55 54 47 37 30 28 27 28 26 24 22 19 17 18 18 17 16 15 16 17 18 19 21 22 24 27 29 32 34 37 39
21 19 21 22 21 19 17 17 17 18 19 18 20 23 26 31 32 32 34 34 35 39 35 26 28 30 25 22 24 25 25 28 29 29 30 33 37 43 45 49 60 68 68 67 68 74 77 72 68 70 71 70 67 60 55 54 52 43 34 30 29 28 28 27 24 22 19 17 18 17 16 15 15 16 17 18 20 20 22 24 26 29 32 35 38 39
18 17 21 23 22 21 20 20 19 20 22 21 22 23 25 30 32 29 27 30 33 34 28 22 26 28 24 23 24 25 27 30 30 29 31 34 38 44 46 51 62 69 70 69 67 73 78 74 68 69 71 71 68 61 56 53 47 38 31 30 29 28 29 27 24 22 20 18 18 17 16 15 15 16 17 18 20 21 22 24 26 29 32 35 38 40
18 21 25 24 21 20 19 20 22 22 24 23 22 23 24 26 29 28 26 29 30 29 24 22 25 25 24 25 25 25 27 30 30 31 32 35 39 44 47 53 62 68 71 71 68 72 78 75 70 68 70 72 69 62 56 49 40 33 30 30 29 29 29 27 24 22 20 18 18 17 16 15 15 16 17 19 20 21 23 25 26 29 32 36 40 41
16 22 28 24 20 19 19 21 23 23 24 23 20 22 25 25 27 28 28 28 29 28 26 26 28 27 24 23 25 26 27 30 31 32 32 35 39 44 46 51 58 65 71 71 68 71 77 76 71 69 70 72 69 63 55 44 35 31 29 28 28 29 29 27 24 22 20 19 19 17 17 16 15 16 17 19 21 22 23 24 25 28 31 36 41 39
16 21 27 24 19 20 21 22 22 21 22 22 21 23 26 27 28 30 29 29 28 27 26 27 28 26 22 22 25 26 28 31 33 31 32 36 39 42 44 46 52 60 67 70 69 69 74 76 72 70 72 72 69 65 54 40 32 31 29 28 28 28 28 26 24 22 20 19 19 18 17 16 16 16 17 19 20 21 23 24 25 28 31 37 41 36
21 21 23 22 21 22 22 23 22 19 16 17 21 25 26 26 28 28 27 28 27 25 25 26 23 20 20 23 26 26 27 30 31 31 33 36 37 39 41 42 46 54 60 66 69 68 72 74 72 72 74 72 69 66 54 38 32 32 30 28 28 28 27 26 24 22 21 20 19 19 17 17 16 16 17 19 20 21 23 24 25 27 31 37 38 30
25 22 22 22 22 24 25 23 21 16 12 14 20 25 23 20 22 24 22 23 25 24 23 23 21 20 22 25 26 27 26 27 29 31 33 35 35 37 38 38 42 48 53 61 67 68 70 73 72 73 76 74 70 66 55 39 33 32 29 28 28 27 27 26 24 23 21 20 20 19 18 17 17 17 18 19 20 21 23 25 25 27 32 37 34 25
28 24 23 25 24 25 26 23 18 15 15 16 19 23 21 18 21 23 20 20 23 25 24 24 22 22 23 24 26 27 25 26 29 31 33 34 34 35 36 36 39 43 48 56 63 66 70 73 72 72 76 75 71 67 57 42 34 32 30 28 28 27 27 26 25 24 22 20 20 19 18 18 17 17 18 19 20 21 23 25 25 27 33 36 30 22
28 26 24 26 26 24 24 22 18 16 16 15 16 21 23 21 22 22 20 19 20 23 25 24 22 22 22 23 24 25 25 27 31 32 32 33 32 34 36 36 36 40 45 51 58 64 69 73 73 72 75 76 72 69 61 46 36 33 30 29 29 28 27 27 26 25 23 21 21 20 19 18 17 18 18 18 19 20 22 24 24 27 33 34 26 21
26 27 24 24 25 23 24 26 22 18 16 15 17 21 21 20 20 21 20 18 17 21 23 22 21 21 22 22 23 25 27 29 31 32 31 31 32 34 35 36 35 38 42 48 54 61 67 73 74 73 75 77 74 71 65 53 40 35 31 29 29 28 27 27 26 26 24 22 21 20 19 19 18 18 18 18 19 19 21 24 23 27 33 32 24 20
23 24 22 20 24 26 26 27 26 21 17 17 20 21 20 19 19 21 22 19 17 16 17 19 21 21 21 23 24 26 29 31 30 30 29 30 33 34 36 36 35 37 41 46 52 56 62 70 75 74 76 78 75 72 69 60 47 38 33 31 30 29 28 27 27 27 25 23 22 20 19 19 18 18 19 18 19 19 21 23 22 27 33 30 22 19
23 27 26 23 26 29 25 25 28 24 17 17 20 20 20 19 18 20 23 22 18 14 13 18 22 21 21 23 25 28 33 33 30 27 27 29 32 34 36 37 36 37 40 45 50 53 57 66 72 73 76 79 77 73 71 65 54 43 36 33 31 30 29 28 28 28 26 25 23 21 20 19 19 19 19 19 19 19 21 22 21 26 32 28 21 17
26 29 29 25 27 30 28 29 31 24 17 17 19 19 20 20 19 22 25 21 16 13 14 18 20 20 20 22 25 31 35 33 29 27 27 29 32 33 35 36 37 38 39 43 49 51 55 62 69 71 75 79 78 74 72 69 62 51 41 35 33 32 31 29 29 29 28 25 23 22 20 19 19 19 19 20 19 20 22 21 20 26 31 26 19 16
30 30 28 28 31 32 30 30 29 23 19 19 19 19 20 20 21 24 24 17 12 13 15 17 18 19 20 22 25 29 30 29 27 27 28 29 31 33 35 36 37 38 39 42 47 50 54 61 66 69 73 78 79 76 74 72 68 59 47 38 35 34 32 30 30 30 29 27 24 23 21 19 20 20 20 20 20 20 22 21 19 25 29 24 17 16
27 30 29 30 33 32 31 33 31 24 19 18 21 22 21 20 21 21 17 13 12 14 15 15 17 19 19 21 23 25 25 26 27 28 28 29 30 32 34 36 37 38 39 42 45 49 52 58 64 67 71 76 78 77 75 74 73 66 54 41 36 35 33 32 32 31 30 28 25 23 22 20 20 20 20 20 20 20 22 20 19 24 28 22 15 15
22 25 27 31 31 29 32 34 29 23 19 17 20 22 21 19 18 15 13 13 13 15 16 16 17 19 20 20 21 22 24 26 27 28 28 29 30 31 34 35 37 38 39 41 44 47 50 55 61 65 69 74 77 77 75 74 74 71 61 47 39 35 34 34 33 32 31 29 26 24 22 20 20 20 20 20 20 21 22 20 20 24 26 20 14 15
21 21 24 27 25 23 27 28 22 17 17 17 16 16 17 16 14 13 15 15 14 14 16 16 16 18 20 20 21 22 24 26 27 27 28 29 30 31 33 35 37 38 39 41 43 46 48 52 58 64 68 72 77 77 74 72 73 73 67 53 42 36 35 34 34 34 32 29 27 24 22 21 20 19 20 20 20 21 21 20 21 25 26 19 14 17
21 20 19 20 20 20 21 20 16 12 13 15 14 13 14 13 13 15 17 16 15 15 16 16 17 18 19 21 21 23 24 26 27 27 28 29 30 31 33 35 37 38 38 40 43 46 47 49 54 61 66 70 75 77 74 71 72 74 71 60 46 38 36 36 35 34 32 29 27 25 22 21 21 20 19 19 19 21 21 20 21 26 25 18 15 23
18 16 16 17 20 20 16 14 15 13 12 13 13 14 15 15 15 16 16 16 16 16 16 17 18 19 20 21 23 24 25 26 27 27 28 29 30 31 33 35 37 38 38 38 41 44 47 49 51 56 63 69 75 77 75 72 71 73 73 67 54 42 38 37 36 35 33 30 27 25 22 21 21 21 20 19 20 21 21 20 22 26 25 17 17 26
17 16 17 17 19 20 15 13 16 15 12 12 13 14 17 16 16 16 16 16 17 16 17 19 19 19 21 22 23 24 25 27 27 27 27 28 29 31 33 36 37 37 36 37 38 42 47 50 50 53 60 69 75 78 76 73 72 73 74 72 62 49 41 38 37 36 34 32 28 25 22 21 21 21 20 20 20 21 21 21 23 27 25 18 17 24
18 17 19 20 19 19 16 14 15 15 14 13 14 16 17 17 17 17 17 18 18 18 19 20 20 21 22 22 23 25 25 26 27 27 27 28 30 32 34 36 37 37 35 36 37 41 45 49 50 52 58 67 75 79 79 75 73 73 75 73 66 55 45 40 38 37 36 33 29 25 23 21 20 20 20 20 21 21 21 20 23 27 25 18 18 25
18 18 22 23 21 20 18 16 17 17 15 13 14 16 17 18 19 19 19 20 21 20 21 21 22 23 23 23 24 25 25 26 26 27 28 29 31 33 34 36 37 37 35 35 36 39 44 48 51 53 57 65 75 81 81 78 74 74 76 75 69 60 50 43 40 38 37 35 30 26 23 21 20 20 20 20 21 21 21 20 23 28 27 20 19 25
20 21 23 25 25 24 21 18 19 19 17 14 15 17 19 20 21 21 21 22 23 23 23 24 24 25 26 27 27 27 27 27 28 29 30 31 32 34 35 37 38 38 36 36 37 39 43 49 53 55 58 64 74 82 85 82 76 74 76 75 71 63 54 46 42 40 38 36 32 27 23 21 20 19 19 20 20 21 21 21 24 29 28 22 20 23
21 22 24 27 28 25 20 18 20 21 19 19 19 19 20 22 23 23 24 25 26 27 27 27 28 29 29 30 30 31 30 30 31 33 34 34 35 36 38 40 41 40 39 38 38 40 43 49 55 58 60 64 73 82 88 85 79 75 74 74 70 63 55 49 44 41 40 37 34 29 24 21 20 19 19 19 20 20 20 21 25 30 29 24 21 22